Stations météo

réclame
Mon MeteoGroup
Trieste, Italie (16110): Température de l'air & dewpoint: 18.01.2018 10:00:00 - 24.01.2018 10:00:00 (CET)Trieste, Italie (16110): Vitesse du vent: 18.01.2018 10:00:00 - 24.01.2018 10:00:00 (CET)Trieste, Italie (16110): Direction du vent: 18.01.2018 10:00:00 - 24.01.2018 10:00:00 (CET)Trieste, Italie (16110): reduced air pressure: 18.01.2018 10:00:00 - 24.01.2018 10:00:00 (CET)Trieste, Italie (16110): visibility: 18.01.2018 10:00:00 - 24.01.2018 10:00:00 (CET)Trieste, Italie (16110): Ensoleillement: 18.01.2018 10:00:00 - 24.01.2018 10:00:00 (CET)
Date & Time tt [°C] td [°C] ff [km/h] ff [knt] dd ppp [hPa] vv [km] sd [min]
24.01.2018 10:00:00 9,4 4,0 0 0 N 1031,6 25 60
24.01.2018 09:00:00 5,8 2,4 0 0 N 1031,1 25 6
24.01.2018 08:00:00 4,6 1,5 4 2 NE 1030,8 25 -
24.01.2018 07:00:00 4,4 1,6 4 2 NNE 1030,3 20 -
24.01.2018 06:00:00 - - - - - - - -
24.01.2018 05:00:00 - - - - - - - -
24.01.2018 04:00:00 - - - - - - - -
24.01.2018 03:00:00 - - - - - - - -
24.01.2018 02:00:00 - - - - - - - -
24.01.2018 01:00:00 - - - - - - - -
24.01.2018 00:00:00 - - - - - - - -
23.01.2018 23:00:00 - - - - - - - -
23.01.2018 22:00:00 - - - - - - - -
23.01.2018 21:00:00 - - - - - - - -
23.01.2018 20:00:00 - - - - - - - -
23.01.2018 19:00:00 6,2 3,5 2 1 NE 1026,9 20 -
23.01.2018 18:00:00 7,0 4,3 0 0 N 1026,3 20 -
23.01.2018 17:00:00 8,2 5,1 0 0 N 1025,4 20 12
23.01.2018 16:00:00 11,6 6,1 0 0 N 1024,7 20 60
23.01.2018 15:00:00 12,6 6,6 2 1 S 1023,8 20 60
23.01.2018 14:00:00 12,2 5,4 2 1 S 1023,4 20 60
23.01.2018 13:00:00 11,0 5,1 0 0 N 1023,4 20 60
23.01.2018 12:00:00 9,8 5,6 5 3 W 1022,8 20 60
23.01.2018 11:00:00 10,2 4,8 0 0 N 1022,1 20 60
23.01.2018 10:00:00 9,2 4,0 0 0 N 1021,3 20 60
23.01.2018 09:00:00 6,8 2,5 0 0 N 1020,0 20 30
23.01.2018 08:00:00 4,8 0,6 0 0 N 1019,5 20 -
23.01.2018 07:00:00 5,2 0,2 0 0 N 1018,6 20 -
23.01.2018 06:00:00 - - - - - - - -
23.01.2018 05:00:00 - - - - - - - -
23.01.2018 04:00:00 - - - - - - - -
23.01.2018 03:00:00 - - - - - - - -
23.01.2018 02:00:00 - - - - - - - -
23.01.2018 01:00:00 - - - - - - - -
23.01.2018 00:00:00 - - - - - - - -
22.01.2018 23:00:00 - - - - - - - -
22.01.2018 22:00:00 - - - - - - - -
22.01.2018 21:00:00 - - - - - - - -
22.01.2018 20:00:00 - - - - - - - -
22.01.2018 19:00:00 6,4 1,3 2 1 NE 1014,6 20 -
22.01.2018 18:00:00 6,2 0,5 2 1 NE 1014,5 20 -
22.01.2018 17:00:00 6,8 -0,9 0 0 N 1014,4 20 0
22.01.2018 16:00:00 8,6 -3,0 0 0 N 1014,5 22 36
22.01.2018 15:00:00 10,2 -3,8 0 0 N 1015,2 25 60
22.01.2018 14:00:00 10,0 -3,0 0 0 N - 10 -
22.01.2018 13:00:00 12,2 -2,1 5 3 W 1015,8 30 60
22.01.2018 12:00:00 12,8 -1,5 0 0 N 1016,1 20 60
22.01.2018 11:00:00 - - - - - - - -
22.01.2018 10:00:00 7,2 -4,5 11 6 ENE 1016,6 30 60
22.01.2018 09:00:00 5,0 -4,8 11 6 NNE 1016,5 30 12
22.01.2018 08:00:00 4,6 -5,7 2 1 ENE 1016,4 30 -
22.01.2018 07:00:00 4,6 -5,7 8 4 NE 1016,5 20 -
22.01.2018 06:00:00 - - - - - - - -
22.01.2018 05:00:00 - - - - - - - -
22.01.2018 04:00:00 - - - - - - - -
22.01.2018 03:00:00 - - - - - - - -
22.01.2018 02:00:00 - - - - - - - -
22.01.2018 01:00:00 - - - - - - - -
22.01.2018 00:00:00 - - - - - - - -
21.01.2018 23:00:00 - - - - - - - -
21.01.2018 22:00:00 - - - - - - - -
21.01.2018 21:00:00 - - - - - - - -
21.01.2018 20:00:00 - - - - - - - -
21.01.2018 19:00:00 5,6 -0,1 0 0 N 1011,7 20 -
21.01.2018 18:00:00 5,4 3,6 2 1 NE 1010,9 20 -
21.01.2018 17:00:00 7,2 3,1 0 0 N 1009,7 20 30
21.01.2018 16:00:00 9,6 3,8 2 1 WSW 1008,2 20 60
21.01.2018 15:00:00 10,8 4,3 2 1 WSW 1007,1 20 60
21.01.2018 14:00:00 11,8 4,3 2 1 WSW 1005,9 20 -
21.01.2018 13:00:00 11,2 4,0 2 1 W 1005,3 20 60
21.01.2018 12:00:00 10,2 4,4 4 2 W 1004,9 20 60
21.01.2018 11:00:00 11,2 6,5 0 0 N 1004,7 20 60
21.01.2018 10:00:00 8,2 6,5 2 1 WNW 1004,0 20 42
21.01.2018 09:00:00 6,4 5,2 0 0 N 1003,4 20 30
21.01.2018 08:00:00 6,2 4,8 4 2 NE 1002,7 20 -
21.01.2018 07:00:00 8,2 5,5 0 0 N 1002,4 20 -
21.01.2018 06:00:00 - - - - - - - -
21.01.2018 05:00:00 - - - - - - - -
21.01.2018 04:00:00 - - - - - - - -
21.01.2018 03:00:00 - - - - - - - -
21.01.2018 02:00:00 - - - - - - - -
21.01.2018 01:00:00 - - - - - - - -
21.01.2018 00:00:00 - - - - - - - -
20.01.2018 23:00:00 - - - - - - - -
20.01.2018 22:00:00 - - - - - - - -
20.01.2018 21:00:00 - - - - - - - -
20.01.2018 20:00:00 - - - - - - - -
20.01.2018 19:00:00 5,8 2,3 0 0 N 1009,3 20 -
20.01.2018 18:00:00 6,2 2,7 0 0 N 1010,4 20 -
20.01.2018 17:00:00 7,6 2,7 0 0 N 1010,6 20 -
20.01.2018 16:00:00 8,8 2,8 0 0 N 1011,2 20 18
20.01.2018 15:00:00 9,0 2,1 0 0 N 1011,4 20 60
20.01.2018 14:00:00 9,4 1,8 0 0 N 1011,6 20 48
20.01.2018 13:00:00 8,0 1,6 4 2 W 1012,7 20 0
20.01.2018 12:00:00 8,6 1,7 4 2 NW 1013,2 20 12
20.01.2018 11:00:00 9,8 0,4 4 2 NNE 1013,1 20 54
20.01.2018 10:00:00 6,6 -2,0 11 6 NE 1013,1 20 12
20.01.2018 09:00:00 5,4 -1,7 9 5 NE 1013,1 20 0
20.01.2018 08:00:00 4,8 -1,6 11 6 NNE 1012,3 10 -
20.01.2018 07:00:00 4,8 -1,6 15 8 NE 1012,2 10 -
20.01.2018 06:00:00 - - - - - - - -
20.01.2018 05:00:00 - - - - - - - -
20.01.2018 04:00:00 - - - - - - - -
20.01.2018 03:00:00 - - - - - - - -
20.01.2018 02:00:00 - - - - - - - -
20.01.2018 01:00:00 - - - - - - - -
20.01.2018 00:00:00 - - - - - - - -
19.01.2018 23:00:00 - - - - - - - -
19.01.2018 22:00:00 - - - - - - - -
19.01.2018 21:00:00 - - - - - - - -
19.01.2018 20:00:00 - - - - - - - -
19.01.2018 19:00:00 7,8 2,5 18 10 NE 1009,6 20 -
19.01.2018 18:00:00 8,2 3,5 18 10 NE 1009,2 20 -
19.01.2018 17:00:00 10,0 7,1 2 1 NE 1008,6 20 0
19.01.2018 16:00:00 9,4 7,4 0 0 N 1008,5 20 0
19.01.2018 15:00:00 9,6 7,2 0 0 N 1008,2 20 0
19.01.2018 14:00:00 9,4 6,3 0 0 N 1007,9 20 0
19.01.2018 13:00:00 9,2 5,6 0 0 N 1007,8 20 0
19.01.2018 12:00:00 9,0 5,4 0 0 N 1007,9 20 0
19.01.2018 11:00:00 9,0 4,8 0 0 N 1008,5 20 0
19.01.2018 10:00:00 8,8 5,2 0 0 N 1008,2 20 0
19.01.2018 09:00:00 9,8 6,5 0 0 N 1008,0 20 0
19.01.2018 08:00:00 8,8 5,4 5 3 NE 1008,1 20 -
19.01.2018 07:00:00 9,8 6,3 4 2 W 1008,1 15 -
19.01.2018 06:00:00 - - - - - - - -
19.01.2018 05:00:00 - - - - - - - -
19.01.2018 04:00:00 - - - - - - - -
19.01.2018 03:00:00 - - - - - - - -
19.01.2018 02:00:00 - - - - - - - -
19.01.2018 01:00:00 - - - - - - - -
19.01.2018 00:00:00 - - - - - - - -
18.01.2018 23:00:00 - - - - - - - -
18.01.2018 22:00:00 - - - - - - - -
18.01.2018 21:00:00 - - - - - - - -
18.01.2018 20:00:00 - - - - - - - -
18.01.2018 19:00:00 7,4 -1,3 5 3 E 1012,0 20 -
18.01.2018 18:00:00 7,2 -2,0 2 1 ENE 1012,5 20 -
18.01.2018 17:00:00 8,8 -2,5 5 3 SSE 1012,9 20 36
18.01.2018 16:00:00 11,0 -2,1 8 4 S 1013,2 20 60
18.01.2018 15:00:00 12,2 -1,0 8 4 S 1013,2 20 60
18.01.2018 14:00:00 12,6 -1,3 8 4 S 1013,2 20 60
18.01.2018 13:00:00 12,4 -1,9 4 2 S 1013,8 20 60
18.01.2018 12:00:00 12,0 -1,2 0 0 N 1014,2 20 60
18.01.2018 11:00:00 10,2 -3,5 2 1 SE 1015,2 20 60
18.01.2018 10:00:00 8,2 -1,6 2 1 ENE 1015,2 20 60

tt = Température de l'air
td = dewpoint
ff = Vitesse du vent
dd = Direction du vent
ppp = reduced air pressure
vv = visibility
sd = Ensoleillement

stations d'obs. à proximité